OK1PHU-6 Weather Reports


time (UTC)temp
C
wind
direction
speed
KPH
gust
KPH
rain 1hr
cm
rain 24hr
cm
rain mn
cm
humidity
%
barometer
mb
20260505041254 -17 135 8.0 12.9 0.00 0.00 0.00 1008.8
20260505040211 -17 113 6.4 11.3 0.00 0.00 0.00 1008.8
20260505035129 -17 135 6.4 9.7 0.00 0.00 0.00 1009.0
20260505034045 -17 180 3.2 4.8 0.00 0.00 0.00 1009.2
20260505033003 -17 180 1.6 4.8 0.00 0.00 0.00 1009.2
20260505031919 -17 180 1.6 6.4 0.00 0.00 0.00 1009.3
20260505030830 -17 180 3.2 6.4 0.00 0.00 0.00 1009.5
20260505025747 -17 135 1.6 4.8 0.00 0.00 0.00 1009.8
20260505024703 -17 90 3.2 3.2 0.00 0.00 0.00 1010.0
20260505023619 -17 90 3.2 4.8 0.00 0.00 0.00 1010.1
20260505022538 -17 135 3.2 4.8 0.00 0.00 0.00 1010.1
20260505021455 -17 135 3.2 4.8 0.00 0.00 0.00 1010.1
20260505020411 -17 90 3.2 4.8 0.00 0.00 0.00 1010.1
20260505015328 -17 135 3.2 4.8 0.00 0.00 0.00 1010.2
20260505014245 -17 135 3.2 3.2 0.00 0.00 0.00 1010.1
20260505013201 -17 180 0.0 4.8 0.00 0.00 0.00 1010.1
20260505012118 -17 270 1.6 3.2 0.00 0.00 0.00 1010.2
20260505011036 -17 180 0.0 4.8 0.00 0.00 0.00 1010.1
20260505005950 -17 23 4.8 14.5 0.00 0.03 0.00 1010.2
20260505004905 -17 0 3.2 17.7 0.00 0.03 0.00 1009.6
20260505003822 -17 180 3.2 8.0 0.00 0.03 0.00 1009.4
20260505002739 -17 135 3.2 11.3 0.00 0.03 0.00 1009.6
20260505001657 -17 90 3.2 16.1 0.00 0.03 0.00 1009.7
20260505000615 -17 225 3.2 14.5 0.00 0.03 0.00 1009.9
20260504235530 -17 180 11.3 19.3 0.00 0.03 0.00 1010.0
20260504234447 -17 180 9.7 12.9 0.00 0.03 0.00 1010.0
20260504233404 -17 135 4.8 14.5 0.00 0.03 0.00 1010.1
20260504232320 -17 225 3.2 12.9 0.00 0.03 0.00 1010.2
20260504231237 -17 135 9.7 14.5 0.00 0.03 0.00 1010.2
20260504230153 -17 135 6.4 19.3 0.00 0.03 0.00 1010.3
20260504225109 -17 180 6.4 14.5 0.00 0.03 0.00 1010.4
20260504224027 -17 180 4.8 12.9 0.00 0.03 0.00 1010.5
20260504222942 -17 90 8.0 19.3 0.00 0.03 0.00 1010.5
20260504221856 -17 135 4.8 12.9 0.00 0.03 0.00 1010.7
20260504220810 -17 90 3.2 11.3 0.00 0.03 0.00 1010.8
20260504215726 -17 113 6.4 14.5 0.00 0.03 0.03 1010.9
20260504214641 -17 135 4.8 9.7 0.00 0.03 0.03 1011.0
20260504213555 -17 90 6.4 8.0 0.00 0.03 0.03 1011.0
20260504212508 -17 90 3.2 8.0 0.00 0.03 0.03 1011.1
20260504211423 -17 135 4.8 8.0 0.00 0.03 0.03 1011.2
20260504210340 -17 180 3.2 9.7 0.00 0.03 0.03 1011.2
20260504205254 -17 135 3.2 11.3 0.00 0.03 0.03 1011.2
20260504204212 -17 90 3.2 9.7 0.00 0.03 0.03 1011.1
20260504203126 -17 68 3.2 6.4 0.00 0.03 0.03 1011.1
20260504202040 -17 180 3.2 14.5 0.00 0.03 0.03 1011.1
20260504200958 -17 180 1.6 16.1 0.00 0.03 0.03 1011.1
20260504195914 -17 0 3.2 14.5 0.00 0.03 0.03 1011.2
20260504194831 -17 135 1.6 14.5 0.00 0.03 0.03 1011.2
20260504193747 -17 90 4.8 9.7 0.00 0.03 0.03 1011.3
20260504192701 -17 180 4.8 9.7 0.00 0.03 0.03 1011.3
20260504191619 -17 90 8.0 9.7 0.00 0.03 0.03 1011.3
20260504190535 -17 180 1.6 8.0 0.00 0.03 0.03 1011.5
20260504185452 -17 90 3.2 4.8 0.00 0.03 0.03 1011.5
20260504184405 -17 135 3.2 4.8 0.00 0.03 0.03 1011.4
20260504183328 -17 135 3.2 4.8 0.00 0.03 0.03 1011.2
20260504182240 -17 135 1.6 3.2 0.00 0.03 0.03 1011.0
20260504181158 -17 135 1.6 3.2 0.00 0.03 0.03 1010.8
20260504180114 -17 135 0.0 3.2 0.00 0.03 0.03 1010.6
20260504175033 -17 135 1.6 3.2 0.00 0.03 0.03 1010.5
20260504173927 -17 135 0.0 3.2 0.00 0.03 0.03 1010.4
20260504172812 -17 90 4.8 4.8 0.00 0.03 0.03 1010.4
20260504171710 -17 90 3.2 3.2 0.00 0.03 0.03 1010.3
20260504170626 -17 135 1.6 1.6 0.00 0.03 0.03 1010.2
20260504160123 -17 270 3.2 4.8 0.00 0.03 0.03 1010.3
20260504150747 -17 270 3.2 8.0 0.00 0.03 0.03 1010.3
20260504140323 -17 225 4.8 14.5 0.00 0.03 0.03 1010.9
20260504082002 -17 315 8.0 14.5 0.00 0.03 0.03 1013.6
20260504080916 -17 225 3.2 8.0 0.00 0.03 0.03 1013.5
20260504050613 -17 180 6.4 17.7 0.00 0.03 0.03 1014.0
20260504045530 -17 315 3.2 11.3 0.00 0.03 0.03 1013.7
20260504044446 -17 270 3.2 19.3 0.00 0.03 0.03 1013.5
20260504043400 -17 225 11.3 19.3 0.00 0.03 0.03 1013.3
20260504042316 -17 135 8.0 14.5 0.00 0.03 0.03 1013.3